,,,PA_Meas_PMT16A,,PR_Meas_QMR101_102,,RH_Meas_QMH101,,SR_Meas_QMS101,,TA_Meas_QMH101,,GenWind,,GenWind,
date,time,status,PA,status,PR,status,RH,status,SR,status,TA,status,DirAvg,status,SpdAvg,
2010-05-12, 00:00:04,VALID,999.156,VALID,0,VALID,90.1592,VALID,0,VALID,24.3238,VALID,87,VALID,0.128906,
2010-05-12, 00:01:04,VALID,999.145,VALID,0,VALID,90.1516,VALID,0,VALID,24.3452,VALID,87,VALID,0.219141,
2010-05-12, 00:02:04,VALID,999.163,VALID,0,VALID,90.2279,VALID,0,VALID,24.3452,VALID,87,VALID,0.296875,
2010-05-12, 00:03:04,VALID,999.147,VALID,0,VALID,90.3271,VALID,0,VALID,24.3043,VALID,87,VALID,0.388672,
2010-05-12, 00:04:04,VALID,999.147,VALID,0,VALID,90.4644,VALID,0,VALID,24.3257,VALID,80,VALID,0.384375,
2010-05-12, 00:05:04,VALID,999.131,VALID,0,VALID,90.6323,VALID,0,VALID,24.2848,VALID,59,VALID,0.415234,
2010-05-12, 00:06:04,VALID,999.139,VALID,0,VALID,90.5788,VALID,0,VALID,24.2653,VALID,27,VALID,0.424609,
2010-05-12, 00:07:04,VALID,999.102,VALID,0,VALID,90.5941,VALID,0,VALID,24.2866,VALID,27,VALID,0.324219,
2010-05-12, 00:08:04,VALID,999.094,VALID,0,VALID,90.7772,VALID,0,VALID,24.2848,VALID,27,VALID,0.244531,
2010-05-12, 00:09:04,VALID,999.109,VALID,0,VALID,90.8154,VALID,0,VALID,24.3062,VALID,27,VALID,0.0953125,
2010-05-12, 00:10:04,VALID,999.068,VALID,0,VALID,90.9756,VALID,0,VALID,24.3062,VALID,27,VALID,0,
2010-05-12, 00:11:04,VALID,999.05,VALID,0,VALID,91.0595,VALID,0,VALID,24.2866,VALID,27,VALID,0.0253906,
2010-05-12, 00:12:04,VALID,999.054,VALID,0,VALID,91.1511,VALID,0,VALID,24.2671,VALID,27,VALID,0.265625,
2010-05-12, 00:13:04,VALID,999.021,VALID,0,VALID,91.2426,VALID,0,VALID,24.2476,VALID,27,VALID,0.282813,
2010-05-12, 00:14:04,VALID,999.038,VALID,0,VALID,91.3647,VALID,0,VALID,24.2086,VALID,27,VALID,0.0425781,
2010-05-12, 00:15:04,VALID,998.996,VALID,0,VALID,91.4791,VALID,0,VALID,24.2086,VALID,27,VALID,0,
2010-05-12, 00:16:04,VALID,998.977,VALID,0,VALID,91.5554,VALID,0,VALID,24.1677,VALID,27,VALID,0,
2010-05-12, 00:17:04,VALID,998.97,VALID,0,VALID,91.6088,VALID,0,VALID,24.1696,VALID,27,VALID,0.114453,
2010-05-12, 00:18:04,VALID,998.959,VALID,0,VALID,91.5402,VALID,0,VALID,24.1482,VALID,27,VALID,0,
2010-05-12, 00:19:04,VALID,998.942,VALID,0,VALID,91.7233,VALID,0,VALID,24.1482,VALID,28,VALID,0.0550781,
2010-05-12, 00:20:04,VALID,998.915,VALID,0,VALID,91.5707,VALID,0,VALID,24.1696,VALID,88,VALID,0.614453,
2010-05-12, 00:21:04,VALID,998.952,VALID,0,VALID,91.4257,VALID,0,VALID,24.15,VALID,88,VALID,0.548047,
2010-05-12, 00:22:04,VALID,998.937,VALID,0,VALID,91.2884,VALID,0,VALID,24.1891,VALID,88,VALID,0.411719,
2010-05-12, 00:23:04,VALID,998.94,VALID,0,VALID,91.1434,VALID,0,VALID,24.2086,VALID,88,VALID,0.420312,
2010-05-12, 00:24:04,VALID,998.912,VALID,0,VALID,91.0443,VALID,0,VALID,24.2086,VALID,88,VALID,0.409766,
2010-05-12, 00:25:04,VALID,998.922,VALID,0,VALID,90.884,VALID,0,VALID,24.2281,VALID,88,VALID,0.438672,
2010-05-12, 00:26:04,VALID,998.898,VALID,0,VALID,90.7543,VALID,0,VALID,24.2281,VALID,88,VALID,0.560547,
2010-05-12, 00:27:04,VALID,998.906,VALID,0,VALID,90.7009,VALID,0,VALID,24.2671,VALID,88,VALID,0.728906,
2010-05-12, 00:28:04,VALID,998.89,VALID,0,VALID,90.884,VALID,0,VALID,24.3062,VALID,88,VALID,0.728516,
2010-05-12, 00:29:04,VALID,998.853,VALID,0,VALID,90.8993,VALID,0,VALID,24.3043,VALID,88,VALID,0.659375,
2010-05-12, 00:30:04,VALID,998.858,VALID,0,VALID,90.9451,VALID,0,VALID,24.3062,VALID,88,VALID,0.566016,
2010-05-12, 00:31:04,VALID,998.829,VALID,0,VALID,90.8917,VALID,0,VALID,24.3062,VALID,88,VALID,0.392578,
2010-05-12, 00:32:04,VALID,998.802,VALID,0,VALID,90.8459,VALID,0,VALID,24.2866,VALID,88,VALID,0.276172,
2010-05-12, 00:33:04,VALID,998.798,VALID,0,VALID,90.7696,VALID,0,VALID,24.2866,VALID,88,VALID,0.123438,
2010-05-12, 00:34:04,VALID,998.795,VALID,0,VALID,90.6933,VALID,0,VALID,24.2866,VALID,88,VALID,0,
2010-05-12, 00:35:04,VALID,998.802,VALID,0,VALID,90.6551,VALID,0,VALID,24.2866,VALID,88,VALID,0,
2010-05-12, 00:36:04,VALID,998.778,VALID,0,VALID,90.7696,VALID,0,VALID,24.2866,VALID,88,VALID,0,
2010-05-12, 00:37:04,VALID,998.759,VALID,0,VALID,90.7543,VALID,0,VALID,24.2671,VALID,88,VALID,0,
2010-05-12, 00:38:04,VALID,998.774,VALID,0,VALID,90.7696,VALID,0,VALID,24.2671,VALID,88,VALID,0,
2010-05-12, 00:39:04,VALID,998.782,VALID,0,VALID,90.7162,VALID,0,VALID,24.2671,VALID,88,VALID,0,
2010-05-12, 00:40:04,VALID,998.735,VALID,0,VALID,90.7849,VALID,0,VALID,24.2671,VALID,88,VALID,0.2,
2010-05-12, 00:41:04,VALID,998.703,VALID,0,VALID,90.762,VALID,0,VALID,24.2671,VALID,88,VALID,0.522266,
2010-05-12, 00:42:04,VALID,998.784,VALID,0,VALID,90.7085,VALID,0,VALID,24.2263,VALID,88,VALID,0.614844,
2010-05-12, 00:43:04,VALID,998.735,VALID,0,VALID,90.6246,VALID,0,VALID,24.2067,VALID,88,VALID,0.489062,
2010-05-12, 00:44:04,VALID,998.704,VALID,0,VALID,90.6017,VALID,0,VALID,24.2281,VALID,88,VALID,0.517969,
2010-05-12, 00:45:04,VALID,998.746,VALID,0,VALID,90.7391,VALID,0,VALID,24.2281,VALID,88,VALID,0.455859,
2010-05-12, 00:46:04,VALID,998.726,VALID,0,VALID,90.823,VALID,0,VALID,24.2086,VALID,88,VALID,0.569141,
2010-05-12, 00:47:04,VALID,998.725,VALID,0,VALID,90.9069,VALID,0,VALID,24.1677,VALID,88,VALID,0.658594,
2010-05-12, 00:48:04,VALID,998.714,VALID,0,VALID,90.8993,VALID,0,VALID,24.1677,VALID,81,VALID,0.812891,
2010-05-12, 00:49:04,VALID,998.715,VALID,0,VALID,90.968,VALID,0,VALID,24.2086,VALID,72,VALID,0.90625,
2010-05-12, 00:50:04,VALID,998.702,VALID,0,VALID,91.1206,VALID,0,VALID,24.1891,VALID,71,VALID,0.939062,
2010-05-12, 00:51:04,VALID,998.715,VALID,0,VALID,91.235,VALID,0,VALID,24.2086,VALID,71,VALID,0.8375,
2010-05-12, 00:52:04,VALID,998.718,VALID,0,VALID,91.2884,VALID,0,VALID,24.1677,VALID,66,VALID,1.06602,
2010-05-12, 00:53:04,VALID,998.715,VALID,0,VALID,91.3723,VALID,0,VALID,24.1482,VALID,65,VALID,1.12227,
2010-05-12, 00:54:04,VALID,998.747,VALID,0,VALID,91.4334,VALID,0,VALID,24.1677,VALID,59,VALID,1.15547,
2010-05-12, 00:55:04,VALID,998.734,VALID,0,VALID,91.4486,VALID,0,VALID,24.1696,VALID,58,VALID,1.02148,
2010-05-12, 00:56:04,VALID,998.764,VALID,0,VALID,91.4791,VALID,0,VALID,24.1287,VALID,59,VALID,0.817187,
2010-05-12, 00:57:04,VALID,998.767,VALID,0,VALID,91.4944,VALID,0,VALID,24.1287,VALID,58,VALID,0.517578,
2010-05-12, 00:58:04,VALID,998.742,VALID,0,VALID,91.5173,VALID,0,VALID,24.15,VALID,60,VALID,0.447266,
2010-05-12, 00:59:05,VALID,998.75,VALID,0,VALID,91.5402,VALID,0,VALID,24.15,VALID,60,VALID,0.362891,
2010-05-12, 01:00:05,VALID,998.732,VALID,0,VALID,91.5402,VALID,0,VALID,24.15,VALID,60,VALID,0.159766,
2010-05-12, 01:01:04,VALID,998.723,VALID,0,VALID,91.5478,VALID,0,VALID,24.1092,VALID,60,VALID,0,
2010-05-12, 01:02:04,VALID,998.716,VALID,0,VALID,91.5783,VALID,0,VALID,24.1092,VALID,60,VALID,0,
2010-05-12, 01:03:05,VALID,998.711,VALID,0,VALID,91.6088,VALID,0,VALID,24.1092,VALID,60,VALID,0,
2010-05-12, 01:04:05,VALID,998.688,VALID,0,VALID,91.647,VALID,0,VALID,24.111,VALID,60,VALID,0,
2010-05-12, 01:05:05,VALID,998.702,VALID,0,VALID,91.6623,VALID,0,VALID,24.1305,VALID,60,VALID,0,
2010-05-12, 01:06:05,VALID,998.694,VALID,0,VALID,91.6775,VALID,0,VALID,24.1092,VALID,60,VALID,0,
2010-05-12, 01:07:05,VALID,998.688,VALID,0,VALID,91.6928,VALID,0,VALID,24.1305,VALID,60,VALID,0,
2010-05-12, 01:08:05,VALID,998.674,VALID,0,VALID,91.7004,VALID,0,VALID,24.15,VALID,60,VALID,0,
2010-05-12, 01:09:05,VALID,998.684,VALID,0,VALID,91.7233,VALID,0,VALID,24.15,VALID,60,VALID,0.228125,
2010-05-12, 01:10:05,VALID,998.638,VALID,0,VALID,91.7462,VALID,0,VALID,24.1696,VALID,60,VALID,0,
2010-05-12, 01:11:05,VALID,998.634,VALID,0,VALID,91.7996,VALID,0,VALID,24.1696,VALID,60,VALID,0,
2010-05-12, 01:12:05,VALID,998.606,VALID,0,VALID,91.8072,VALID,0,VALID,24.1891,VALID,60,VALID,0,
2010-05-12, 01:13:05,VALID,998.587,VALID,0,VALID,91.8377,VALID,0,VALID,24.1677,VALID,60,VALID,0,
2010-05-12, 01:14:05,VALID,998.552,VALID,0,VALID,91.8225,VALID,0,VALID,24.1891,VALID,111,VALID,0.654297,
2010-05-12, 01:15:05,VALID,998.551,VALID,0,VALID,91.7538,VALID,0,VALID,24.2067,VALID,112,VALID,0.537109,
2010-05-12, 01:16:05,VALID,998.507,VALID,0,VALID,91.6546,VALID,0,VALID,24.2476,VALID,112,VALID,0.669922,
2010-05-12, 01:17:05,VALID,998.522,VALID,0,VALID,91.5631,VALID,0,VALID,24.2263,VALID,113,VALID,0.662109,
2010-05-12, 01:18:05,VALID,998.51,VALID,0,VALID,91.5173,VALID,0,VALID,24.2458,VALID,122,VALID,0.667188,
2010-05-12, 01:19:05,VALID,998.492,VALID,0,VALID,91.4639,VALID,0,VALID,24.2653,VALID,122,VALID,0.605859,
2010-05-12, 01:20:05,VALID,998.482,VALID,0,VALID,91.38,VALID,0,VALID,24.2653,VALID,122,VALID,0.701563,
2010-05-12, 01:21:05,VALID,998.477,VALID,0,VALID,91.3342,VALID,0,VALID,24.2866,VALID,122,VALID,0.500391,
2010-05-12, 01:22:05,VALID,998.461,VALID,0,VALID,91.2808,VALID,0,VALID,24.2848,VALID,122,VALID,0.489844,
2010-05-12, 01:23:05,VALID,998.428,VALID,0,VALID,91.2274,VALID,0,VALID,24.3062,VALID,139,VALID,0.571094,
2010-05-12, 01:24:05,VALID,998.442,VALID,0,VALID,91.1892,VALID,0,VALID,24.3043,VALID,139,VALID,0.392188,
2010-05-12, 01:25:05,VALID,998.408,VALID,0,VALID,91.1892,VALID,0,VALID,24.3062,VALID,143,VALID,0.46875,
2010-05-12, 01:26:05,VALID,998.423,VALID,0,VALID,91.174,VALID,0,VALID,24.3257,VALID,148,VALID,0.414453,
2010-05-12, 01:27:05,VALID,998.407,VALID,0,VALID,91.1434,VALID,0,VALID,24.3257,VALID,148,VALID,0.491406,
2010-05-12, 01:28:05,VALID,998.377,VALID,0,VALID,91.1282,VALID,0,VALID,24.3238,VALID,148,VALID,0.334375,
2010-05-12, 01:29:05,VALID,998.383,VALID,0,VALID,91.1358,VALID,0,VALID,24.3452,VALID,148,VALID,0.226953,
2010-05-12, 01:30:05,VALID,998.364,VALID,0,VALID,91.1511,VALID,0,VALID,24.3238,VALID,148,VALID,0.350391,
2010-05-12, 01:31:05,VALID,998.346,VALID,0,VALID,91.1511,VALID,0,VALID,24.3433,VALID,148,VALID,0.470313,
2010-05-12, 01:32:05,VALID,998.345,VALID,0,VALID,91.0519,VALID,0,VALID,24.3452,VALID,139,VALID,0.669141,
2010-05-12, 01:33:05,VALID,998.33,VALID,0,VALID,90.968,VALID,0,VALID,24.3433,VALID,139,VALID,0.663672,
2010-05-12, 01:34:05,VALID,998.311,VALID,0,VALID,90.884,VALID,0,VALID,24.3433,VALID,134,VALID,0.644531,
2010-05-12, 01:35:05,VALID,998.299,VALID,0,VALID,90.9222,VALID,0,VALID,24.3452,VALID,134,VALID,0.513672,
2010-05-12, 01:36:05,VALID,998.291,VALID,0,VALID,90.968,VALID,0,VALID,24.3452,VALID,105,VALID,0.650781,
2010-05-12, 01:37:05,VALID,998.304,VALID,0,VALID,91.09,VALID,0,VALID,24.3452,VALID,91,VALID,0.685547,
2010-05-12, 01:38:05,VALID,998.257,VALID,0,VALID,91.1511,VALID,0,VALID,24.3647,VALID,91,VALID,0.572656,
2010-05-12, 01:39:05,VALID,998.256,VALID,0,VALID,91.174,VALID,0,VALID,24.3452,VALID,91,VALID,0.551953,
2010-05-12, 01:40:05,VALID,998.256,VALID,0,VALID,91.2121,VALID,0,VALID,24.3257,VALID,91,VALID,0.478125,
2010-05-12, 01:41:05,VALID,998.246,VALID,0,VALID,91.2274,VALID,0,VALID,24.3257,VALID,91,VALID,0.397266,
2010-05-12, 01:42:05,VALID,998.21,VALID,0,VALID,91.2503,VALID,0,VALID,24.2653,VALID,91,VALID,0.358984,
2010-05-12, 01:43:05,VALID,998.223,VALID,0,VALID,91.2655,VALID,0,VALID,24.2866,VALID,91,VALID,0.330469,
2010-05-12, 01:44:05,VALID,998.222,VALID,0,VALID,91.2426,VALID,0,VALID,24.2671,VALID,91,VALID,0.11875,
2010-05-12, 01:45:05,VALID,998.224,VALID,0,VALID,91.2426,VALID,0,VALID,24.2671,VALID,91,VALID,0,
2010-05-12, 01:46:05,VALID,998.229,VALID,0,VALID,91.3494,VALID,0,VALID,24.2263,VALID,91,VALID,0,
2010-05-12, 01:47:05,VALID,998.217,VALID,0,VALID,91.38,VALID,0,VALID,24.2476,VALID,91,VALID,0,
2010-05-12, 01:48:05,VALID,998.219,VALID,0,VALID,91.4028,VALID,0,VALID,24.2067,VALID,91,VALID,0,
2010-05-12, 01:49:05,VALID,998.223,VALID,0,VALID,91.3647,VALID,0,VALID,24.2086,VALID,91,VALID,0,
2010-05-12, 01:50:05,VALID,998.188,VALID,0,VALID,91.4105,VALID,0,VALID,24.1891,VALID,91,VALID,0,
2010-05-12, 01:51:05,VALID,998.208,VALID,0,VALID,91.4791,VALID,0,VALID,24.1677,VALID,91,VALID,0,
2010-05-12, 01:52:05,VALID,998.213,VALID,0,VALID,91.4791,VALID,0,VALID,24.1696,VALID,91,VALID,0,
2010-05-12, 01:53:05,VALID,998.206,VALID,0,VALID,91.5097,VALID,0,VALID,24.15,VALID,91,VALID,0.30625,
2010-05-12, 01:54:05,VALID,998.189,VALID,0,VALID,91.4944,VALID,0,VALID,24.1696,VALID,98,VALID,0.285156,
2010-05-12, 01:55:05,VALID,998.189,VALID,0,VALID,91.4715,VALID,0,VALID,24.1891,VALID,106,VALID,0.333984,
2010-05-12, 01:56:05,VALID,998.154,VALID,0,VALID,91.4334,VALID,0,VALID,24.1696,VALID,106,VALID,0.317187,
2010-05-12, 01:57:05,VALID,998.169,VALID,0,VALID,91.441,VALID,0,VALID,24.1677,VALID,106,VALID,0.312109,
2010-05-12, 01:58:05,VALID,998.146,VALID,0,VALID,91.4257,VALID,0,VALID,24.1872,VALID,106,VALID,0.482812,
2010-05-12, 01:59:05,VALID,998.16,VALID,0,VALID,91.3876,VALID,0,VALID,24.2086,VALID,114,VALID,0.297656,
2010-05-12, 02:00:05,VALID,998.153,VALID,0,VALID,91.3647,VALID,0,VALID,24.2086,VALID,135,VALID,0.422266,
2010-05-12, 02:01:05,VALID,998.123,VALID,0,VALID,91.3266,VALID,0,VALID,24.2281,VALID,135,VALID,0.587109,
2010-05-12, 02:02:05,VALID,998.109,VALID,0,VALID,91.296,VALID,0,VALID,24.2281,VALID,135,VALID,0.505859,
2010-05-12, 02:03:05,VALID,998.094,VALID,0,VALID,91.2655,VALID,0,VALID,24.2671,VALID,135,VALID,0.393359,
2010-05-12, 02:04:05,VALID,998.073,VALID,0,VALID,91.3037,VALID,0,VALID,24.2653,VALID,135,VALID,0.344531,
2010-05-12, 02:05:05,VALID,998.067,VALID,0,VALID,91.2808,VALID,0,VALID,24.2458,VALID,135,VALID,0.377734,
2010-05-12, 02:06:05,VALID,998.062,VALID,0,VALID,91.296,VALID,0,VALID,24.2671,VALID,135,VALID,0.464453,
2010-05-12, 02:07:05,VALID,998.032,VALID,0,VALID,91.2808,VALID,0,VALID,24.2458,VALID,135,VALID,0.421875,
2010-05-12, 02:08:05,VALID,998.037,VALID,0,VALID,91.296,VALID,0,VALID,24.2671,VALID,135,VALID,0.360938,
2010-05-12, 02:09:05,VALID,998.045,VALID,0,VALID,91.3266,VALID,0,VALID,24.2671,VALID,135,VALID,0.214844,
2010-05-12, 02:10:05,VALID,998.047,VALID,0,VALID,91.3113,VALID,0,VALID,24.2671,VALID,135,VALID,0.139453,
2010-05-12, 02:11:05,VALID,998.016,VALID,0,VALID,91.2121,VALID,0,VALID,24.2671,VALID,135,VALID,0.00507812,
2010-05-12, 02:12:05,VALID,997.995,VALID,0,VALID,91.2121,VALID,0,VALID,24.2866,VALID,135,VALID,0,
2010-05-12, 02:13:05,VALID,998.025,VALID,0,VALID,91.1663,VALID,0,VALID,24.2653,VALID,135,VALID,0.0484375,
2010-05-12, 02:14:05,VALID,998.002,VALID,0,VALID,91.1892,VALID,0,VALID,24.2671,VALID,135,VALID,0.307813,
2010-05-12, 02:15:05,VALID,997.981,VALID,0,VALID,91.1892,VALID,0,VALID,24.2458,VALID,135,VALID,0.457422,
2010-05-12, 02:16:05,VALID,997.997,VALID,0,VALID,91.1968,VALID,0,VALID,24.2653,VALID,135,VALID,0.463672,
2010-05-12, 02:17:05,VALID,997.994,VALID,0,VALID,91.2197,VALID,0,VALID,24.2866,VALID,98,VALID,0.627344,
2010-05-12, 02:18:05,VALID,997.979,VALID,0,VALID,91.2121,VALID,0,VALID,24.2653,VALID,93,VALID,0.624609,
2010-05-12, 02:19:05,VALID,997.982,VALID,0,VALID,91.1968,VALID,0,VALID,24.2866,VALID,91,VALID,0.485156,
2010-05-12, 02:20:05,VALID,997.97,VALID,0,VALID,91.2121,VALID,0,VALID,24.2653,VALID,91,VALID,0.542188,
2010-05-12, 02:21:05,VALID,997.943,VALID,0,VALID,91.2121,VALID,0,VALID,24.2866,VALID,91,VALID,0.412891,
2010-05-12, 02:22:05,VALID,997.924,VALID,0,VALID,91.2579,VALID,0,VALID,24.2458,VALID,91,VALID,0.317578,
2010-05-12, 02:23:05,VALID,997.93,VALID,0,VALID,91.2503,VALID,0,VALID,24.2263,VALID,91,VALID,0.251953,
2010-05-12, 02:24:05,VALID,997.893,VALID,0,VALID,91.2426,VALID,0,VALID,24.2458,VALID,91,VALID,0.0578125,
2010-05-12, 02:25:05,VALID,997.864,VALID,0,VALID,91.2503,VALID,0,VALID,24.2476,VALID,91,VALID,0,
2010-05-12, 02:26:05,VALID,997.889,VALID,0,VALID,91.2655,VALID,0,VALID,24.2067,VALID,91,VALID,0,
2010-05-12, 02:27:05,VALID,997.878,VALID,0,VALID,91.2731,VALID,0,VALID,24.2086,VALID,91,VALID,0,
2010-05-12, 02:28:05,VALID,997.864,VALID,0,VALID,91.4486,VALID,0,VALID,24.2281,VALID,91,VALID,0.192578,
2010-05-12, 02:29:05,VALID,997.863,VALID,0,VALID,91.6012,VALID,0,VALID,24.2067,VALID,91,VALID,0.180078,
2010-05-12, 02:30:05,VALID,997.864,VALID,0,VALID,91.5707,VALID,0,VALID,24.1872,VALID,91,VALID,0.151562,
2010-05-12, 02:31:05,VALID,997.816,VALID,0,VALID,91.5554,VALID,0,VALID,24.1677,VALID,91,VALID,0,
2010-05-12, 02:32:05,VALID,997.845,VALID,0,VALID,91.5326,VALID,0,VALID,24.1891,VALID,91,VALID,0,
2010-05-12, 02:33:05,VALID,997.79,VALID,0,VALID,91.5707,VALID,0,VALID,24.1677,VALID,91,VALID,0,
2010-05-12, 02:34:05,VALID,997.778,VALID,0,VALID,91.6241,VALID,0,VALID,24.1696,VALID,91,VALID,0,
2010-05-12, 02:35:05,VALID,997.752,VALID,0,VALID,91.6928,VALID,0,VALID,24.1482,VALID,91,VALID,0,
2010-05-12, 02:36:05,VALID,997.761,VALID,0,VALID,91.7614,VALID,0,VALID,24.1482,VALID,91,VALID,0,
2010-05-12, 02:37:05,VALID,997.743,VALID,0,VALID,91.7691,VALID,0,VALID,24.1696,VALID,91,VALID,0,
2010-05-12, 02:38:05,VALID,997.723,VALID,0,VALID,91.7691,VALID,0,VALID,24.1287,VALID,91,VALID,0,
2010-05-12, 02:39:05,VALID,997.723,VALID,0,VALID,91.7385,VALID,0,VALID,24.15,VALID,91,VALID,0,
2010-05-12, 02:40:05,VALID,997.705,VALID,0,VALID,91.7691,VALID,0,VALID,24.1482,VALID,91,VALID,0,
2010-05-12, 02:41:05,VALID,997.682,VALID,0,VALID,91.8072,VALID,0,VALID,24.15,VALID,91,VALID,0,
2010-05-12, 02:42:05,VALID,997.689,VALID,0,VALID,91.7996,VALID,0,VALID,24.1305,VALID,91,VALID,0,
2010-05-12, 02:43:05,VALID,997.684,VALID,0,VALID,91.8148,VALID,0,VALID,24.1092,VALID,91,VALID,0,
2010-05-12, 02:44:05,VALID,997.703,VALID,0,VALID,91.7614,VALID,0,VALID,24.1305,VALID,85,VALID,0.78125,
2010-05-12, 02:45:05,VALID,997.679,VALID,0,VALID,91.647,VALID,0,VALID,24.15,VALID,73,VALID,0.713672,
2010-05-12, 02:46:05,VALID,997.707,VALID,0,VALID,91.5097,VALID,0,VALID,24.1305,VALID,70,VALID,1.00078,
2010-05-12, 02:47:05,VALID,997.72,VALID,0,VALID,91.4944,VALID,0,VALID,24.1287,VALID,59,VALID,1.02305,
2010-05-12, 02:48:05,VALID,997.706,VALID,0,VALID,91.4944,VALID,0,VALID,24.15,VALID,60,VALID,1.07695,
2010-05-12, 02:49:05,VALID,997.734,VALID,0,VALID,91.5173,VALID,0,VALID,24.1092,VALID,59,VALID,0.866016,
2010-05-12, 02:50:05,VALID,997.758,VALID,0,VALID,91.6241,VALID,0,VALID,24.1305,VALID,55,VALID,0.93125,
2010-05-12, 02:51:05,VALID,997.765,VALID,0,VALID,91.7004,VALID,0,VALID,24.111,VALID,55,VALID,0.903516,
2010-05-12, 02:52:05,VALID,997.768,VALID,0,VALID,91.8148,VALID,0,VALID,24.0701,VALID,49,VALID,0.978125,
2010-05-12, 02:53:05,VALID,997.809,VALID,0,VALID,91.8759,VALID,0,VALID,24.072,VALID,49,VALID,0.803906,
2010-05-12, 02:54:05,VALID,997.826,VALID,0,VALID,91.998,VALID,0,VALID,24.0329,VALID,47,VALID,1.02305,
2010-05-12, 02:55:05,VALID,997.849,VALID,0,VALID,92.0514,VALID,0,VALID,24.0116,VALID,43,VALID,0.807813,
2010-05-12, 02:56:05,VALID,997.859,VALID,0,VALID,92.1429,VALID,0,VALID,24.0329,VALID,37,VALID,0.794141,
2010-05-12, 02:57:05,VALID,997.91,VALID,0,VALID,92.1582,VALID,0,VALID,24.0134,VALID,30,VALID,0.922656,
2010-05-12, 02:58:05,VALID,997.89,VALID,0,VALID,92.1734,VALID,0,VALID,23.9939,VALID,30,VALID,0.889453,
2010-05-12, 02:59:05,VALID,997.927,VALID,0,VALID,92.1658,VALID,0,VALID,23.9531,VALID,27,VALID,0.894531,
2010-05-12, 03:00:05,VALID,997.923,VALID,0,VALID,92.2192,VALID,0,VALID,23.9336,VALID,24,VALID,1.00078,
2010-05-12, 03:01:05,VALID,997.91,VALID,0,VALID,92.3108,VALID,0,VALID,23.914,VALID,24,VALID,1.05117,
2010-05-12, 03:02:05,VALID,997.908,VALID,0,VALID,92.3718,VALID,0,VALID,23.914,VALID,19,VALID,0.933984,
2010-05-12, 03:03:05,VALID,997.937,VALID,0,VALID,92.4252,VALID,0,VALID,23.9354,VALID,16,VALID,0.932031,
2010-05-12, 03:04:05,VALID,997.898,VALID,0,VALID,92.4863,VALID,0,VALID,23.914,VALID,12,VALID,0.960156,
2010-05-12, 03:05:05,VALID,997.915,VALID,0,VALID,92.5244,VALID,0,VALID,23.9159,VALID,13,VALID,0.871875,
2010-05-12, 03:06:05,VALID,997.925,VALID,0,VALID,92.5473,VALID,0,VALID,23.8963,VALID,31,VALID,0.955078,
2010-05-12, 03:07:05,VALID,997.903,VALID,0,VALID,92.6083,VALID,0,VALID,23.8945,VALID,36,VALID,0.788672,
2010-05-12, 03:08:05,VALID,997.901,VALID,0,VALID,92.6312,VALID,0,VALID,23.9159,VALID,36,VALID,0.765625,
2010-05-12, 03:09:05,VALID,997.916,VALID,0,VALID,92.6465,VALID,0,VALID,23.914,VALID,36,VALID,0.655078,
2010-05-12, 03:10:05,VALID,997.905,VALID,0,VALID,92.6541,VALID,0,VALID,23.914,VALID,36,VALID,0.316406,
2010-05-12, 03:11:05,VALID,997.901,VALID,0,VALID,92.6999,VALID,0,VALID,23.8963,VALID,36,VALID,0.489453,
2010-05-12, 03:12:05,VALID,997.887,VALID,0,VALID,92.6846,VALID,0,VALID,23.8963,VALID,36,VALID,0.252734,
2010-05-12, 03:13:05,VALID,997.92,VALID,0,VALID,92.6923,VALID,0,VALID,23.875,VALID,36,VALID,0.0878906,
2010-05-12, 03:14:05,VALID,997.935,VALID,0,VALID,92.6923,VALID,0,VALID,23.8555,VALID,36,VALID,0,
2010-05-12, 03:15:05,VALID,997.933,VALID,0,VALID,92.6999,VALID,0,VALID,23.8768,VALID,36,VALID,0,
2010-05-12, 03:16:05,VALID,997.933,VALID,0,VALID,92.7533,VALID,0,VALID,23.8768,VALID,36,VALID,0.2875,
2010-05-12, 03:17:05,VALID,997.966,VALID,0,VALID,92.8067,VALID,0,VALID,23.8555,VALID,36,VALID,0.464063,
2010-05-12, 03:18:05,VALID,997.966,VALID,0,VALID,92.8983,VALID,0,VALID,23.8963,VALID,36,VALID,0.591406,
2010-05-12, 03:19:05,VALID,998.002,VALID,0,VALID,92.9059,VALID,0,VALID,23.8963,VALID,52,VALID,0.774219,
2010-05-12, 03:20:05,VALID,998.009,VALID,0,VALID,92.9059,VALID,0,VALID,23.9159,VALID,53,VALID,0.862891,
2010-05-12, 03:21:05,VALID,998.02,VALID,0,VALID,92.944,VALID,0,VALID,23.9354,VALID,53,VALID,0.768359,
2010-05-12, 03:22:05,VALID,998.032,VALID,0,VALID,92.9211,VALID,0,VALID,23.914,VALID,53,VALID,0.625781,
2010-05-12, 03:23:05,VALID,998.016,VALID,0,VALID,92.8677,VALID,0,VALID,23.9354,VALID,53,VALID,0.49375,
2010-05-12, 03:24:05,VALID,998.021,VALID,0,VALID,92.7991,VALID,0,VALID,23.875,VALID,63,VALID,0.551953,
2010-05-12, 03:25:05,VALID,998.02,VALID,0,VALID,92.7533,VALID,0,VALID,23.875,VALID,73,VALID,0.540625,
2010-05-12, 03:26:05,VALID,997.997,VALID,0,VALID,92.7685,VALID,0.112286,VALID,23.8555,VALID,87,VALID,0.660937,
2010-05-12, 03:27:05,VALID,997.998,VALID,0,VALID,92.7991,VALID,0,VALID,23.8555,VALID,89,VALID,0.550781,
2010-05-12, 03:28:05,VALID,997.99,VALID,0,VALID,92.7914,VALID,0,VALID,23.8555,VALID,89,VALID,0.444531,
2010-05-12, 03:29:05,VALID,998.003,VALID,0,VALID,92.822,VALID,0,VALID,23.8555,VALID,89,VALID,0.310937,
2010-05-12, 03:30:05,VALID,997.992,VALID,0,VALID,92.8067,VALID,0,VALID,23.8573,VALID,89,VALID,0.331641,
2010-05-12, 03:31:05,VALID,998.003,VALID,0,VALID,92.8067,VALID,0,VALID,23.836,VALID,89,VALID,0.389062,
2010-05-12, 03:32:05,VALID,998.002,VALID,0,VALID,92.7991,VALID,0,VALID,23.836,VALID,89,VALID,0.433203,
2010-05-12, 03:33:05,VALID,998.035,VALID,0,VALID,92.8677,VALID,0,VALID,23.875,VALID,96,VALID,0.604688,
2010-05-12, 03:34:05,VALID,998.048,VALID,0,VALID,92.8906,VALID,0,VALID,23.8963,VALID,116,VALID,0.678125,
2010-05-12, 03:35:05,VALID,998.013,VALID,0,VALID,92.883,VALID,0,VALID,23.9159,VALID,116,VALID,0.721484,
2010-05-12, 03:36:05,VALID,998.019,VALID,0,VALID,92.8754,VALID,0,VALID,23.8945,VALID,116,VALID,0.803906,
2010-05-12, 03:37:05,VALID,998.012,VALID,0,VALID,92.8143,VALID,0,VALID,23.9354,VALID,111,VALID,0.804297,
2010-05-12, 03:38:05,VALID,998.042,VALID,0,VALID,92.7685,VALID,0,VALID,23.9354,VALID,104,VALID,0.957422,
2010-05-12, 03:39:05,VALID,998.063,VALID,0,VALID,92.7151,VALID,0,VALID,23.9336,VALID,103,VALID,0.816016,
2010-05-12, 03:40:05,VALID,998.055,VALID,0,VALID,92.7151,VALID,0,VALID,23.9549,VALID,103,VALID,0.671094,
2010-05-12, 03:41:05,VALID,998.084,VALID,0,VALID,92.6999,VALID,0,VALID,23.9531,VALID,117,VALID,0.713672,
2010-05-12, 03:42:05,VALID,998.098,VALID,0,VALID,92.6999,VALID,0,VALID,23.9726,VALID,114,VALID,0.813281,
2010-05-12, 03:43:04,VALID,998.086,VALID,0,VALID,92.7075,VALID,0,VALID,23.9921,VALID,125,VALID,0.547656,
2010-05-12, 03:44:04,VALID,998.095,VALID,0,VALID,92.6923,VALID,0,VALID,24.0116,VALID,117,VALID,0.523047,
2010-05-12, 03:45:04,VALID,998.1,VALID,0,VALID,92.6617,VALID,0,VALID,24.0116,VALID,122,VALID,0.697266,
2010-05-12, 03:46:04,VALID,998.115,VALID,0,VALID,92.6083,VALID,0,VALID,24.0116,VALID,123,VALID,0.348828,
2010-05-12, 03:47:04,VALID,998.102,VALID,0,VALID,92.6312,VALID,0,VALID,24.0525,VALID,123,VALID,0.300391,
2010-05-12, 03:48:04,VALID,998.121,VALID,0,VALID,92.5778,VALID,0,VALID,24.0311,VALID,124,VALID,0.404687,
2010-05-12, 03:49:04,VALID,998.132,VALID,0,VALID,92.5549,VALID,0,VALID,24.0525,VALID,124,VALID,0.221875,